Location: Newark
(44.3681°N, 100.3364°W)
Time: 20:07:15
(UTC+00:00)

Vanguard 2 Rocket - All Passes

Search period start: 16 February 2020 00:00
Search period end: 26 February 2020 00:00
Orbit: 554 x 3326 km, 32.9° (Epoch: 16 February)

Date Brightness Start Highest point End Pass type
(mag) Time Alt. Az. Time Alt. Az. Time Alt. Az.
16 Feb - 00:57:46 10° SSE 00:58:41 10° SE 00:59:34 10° SE visible
16 Feb - 03:02:10 10° SSW 03:13:31 26° SSE 03:21:20 10° ESE visible
16 Feb - 05:17:01 10° SW 05:27:42 36° S 05:34:13 10° ESE visible
16 Feb - 07:33:29 10° WSW 07:40:39 29° SSW 07:45:22 10° SE night (unlit)
17 Feb - 02:01:49 10° SSW 02:13:04 22° SSE 02:21:21 10° ESE visible
17 Feb - 04:15:28 10° SW 04:27:43 36° S 04:35:17 10° ESE visible
17 Feb - 06:32:01 10° WSW 06:41:17 36° S 06:46:58 10° SE visible
17 Feb - 08:49:08 10° WSW 08:53:24 17° SSW 08:56:42 10° S night (unlit)
18 Feb - 01:02:22 10° S 01:12:26 18° SSE 01:20:30 10° ESE visible
18 Feb - 03:14:02 10° SW 03:27:26 34° SSE 03:36:05 10° ESE visible
18 Feb - 05:30:17 10° WSW 05:41:38 40° S 05:48:21 10° ESE visible
18 Feb - 07:47:28 10° WSW 07:54:22 26° SSW 07:59:01 10° SSE night (unlit)
19 Feb - 00:04:45 10° SSE 00:11:42 13° SE 00:17:52 10° ESE daylight
19 Feb - 02:12:55 10° SSW 02:26:53 30° SSE 02:36:29 10° ESE visible
19 Feb - 04:28:25 10° WSW 04:41:38 42° S 04:49:33 10° ESE visible
19 Feb - 06:45:45 10° WSW 06:55:05 35° SSW 07:00:50 10° SE visible
19 Feb - 09:04:21 10° WSW 09:06:50 12° SW 09:08:59 10° SSW night (unlit)
20 Feb - 01:12:26 10° SSW 01:26:07 26° SSE 01:36:21 10° ESE visible
20 Feb - 03:26:34 10° SW 03:41:18 41° S 03:50:27 10° ESE visible
20 Feb - 05:43:48 10° WSW 05:55:29 42° S 06:02:22 10° ESE visible
20 Feb - 08:01:43 10° WSW 08:07:55 21° SSW 08:12:19 10° SSE night (unlit)
21 Feb - 00:12:51 10° S 00:25:15 21° SSE 00:35:23 10° ESE daylight
21 Feb - 02:24:58 10° SW 02:40:41 38° SSE 02:51:03 10° E visible
21 Feb - 04:41:42 10° WSW 04:55:30 46° S 05:03:38 10° ESE visible
21 Feb - 06:59:39 10° W 07:08:44 31° SSW 07:14:30 10° SE visible
21 Feb - 23:14:49 10° S 23:24:23 16° SE 23:32:55 10° ESE daylight
22 Feb - 01:23:50 10° SSW 01:39:47 34° SSE 01:51:14 10° E visible
22 Feb - 03:39:33 10° WSW 03:55:09 47° S 04:04:38 10° ESE visible
22 Feb - 05:57:31 10° W 06:09:13 40° SSW 06:16:13 10° SE visible
22 Feb - 08:16:30 10° WSW 08:21:15 16° SW 08:24:56 10° S night (unlit)
23 Feb - 00:23:22 10° SSW 00:38:45 29° SSE 00:50:50 10° E visible
23 Feb - 02:37:35 10° SW 02:54:26 46° S 03:05:20 10° E visible
23 Feb - 04:55:13 10° WSW 05:09:18 46° S 05:17:36 10° ESE visible
23 Feb - 07:13:48 10° W 07:22:12 25° SSW 07:27:48 10° SSE visible
23 Feb - 23:23:52 10° S 23:37:43 24° SE 23:49:36 10° E daylight
24 Feb - 01:36:00 10° SW 01:53:27 42° SSE 02:05:40 10° E visible
24 Feb - 03:52:51 10° WSW 04:08:57 50° S 04:18:41 10° ESE visible
24 Feb - 06:11:22 10° W 06:22:49 35° SSW 06:29:50 10° SE visible
24 Feb - 08:33:40 10° SW 08:34:23 10° SW 08:35:05 10° SW night (unlit)
24 Feb - 22:25:50 10° S 22:36:46 17° SE 22:46:58 10° ESE daylight
25 Feb - 00:35:00 10° SSW 00:52:16 38° SSE 01:05:33 10° E visible
25 Feb - 02:50:38 10° WSW 03:08:13 51° S 03:19:27 10° ESE visible
25 Feb - 05:08:53 10° W 05:22:59 44° SSW 05:31:24 10° SE visible
25 Feb - 07:28:22 10° W 07:35:27 19° SW 07:40:35 10° S visible
25 Feb - 21:31:39 10° SE 21:36:02 11° SE 21:40:23 10° ESE daylight
